Regional Weather Roundup
Issued by NWS Albany, NY

Home | Current Version | Previous Version | Text Only | Print | Product List | Glossary On
Versions: 1 2 3 4 5 6 7 8 9 10 11 12 13 14 15 16 17 18 19 20 21 22 23 24 25 26 27 28 29 30 31 32 33 34 35 36 37 38 39 40 41 42 43 44 45 46 47 48 49 50
345
ASUS41 KALY 310110
RWRALY

NEW YORK STATE HOURLY WEATHER ROUNDUP
NATIONAL WEATHER SERVICE ALBANY NY
900 PM EDT SAT JUL 30 2016

NOTE: "FAIR" INDICATES FEW OR NO CLOUDS BELOW 12,000 FEET WITH NO
SIGNIFICANT WEATHER AND/OR NO OBSTRUCTIONS TO VISIBILITY.

NYZ032-033-038>043-046>054-057>066-NYZ062>081-082-084-310200-
EAST


CITY           SKY/WX    TMP DP  RH WIND       PRES   REMARKS
ALBANY         LGT RAIN  70  66  87 E3        30.05R
GLENS FALLS    MOCLDY    71  58  63 N6        30.06R
POUGHKEEPSIE   CLOUDY    74  70  87 CALM      30.05R
NEWBURGH       CLOUDY    70  70 100 CALM      30.08R FOG
MONTGOMERY     LGT RAIN  70  68  93 CALM      30.06S FOG
WHITE PLAINS   LGT RAIN  74  72  93 CALM      30.06R FOG
ISLIP          LGT RAIN  75  73  93 CALM      30.06R
NEW YORK CITY  LGT RAIN  77  73  87 S6        30.04R
CENTRAL PARK   LGT RAIN  74  72  93 CALM      30.07S FOG
$$

NYZ005>009-017-018-044>046-055-056-310200-
CENTRAL


CITY           SKY/WX    TMP DP  RH WIND       PRES   REMARKS
FULTON         CLOUDY    73  63  70 CALM      30.04R
SYRACUSE       CLOUDY    72  63  73 NE3       30.03R
ROME           MOCLDY    71  63  75 E5        30.05S
ELMIRA         CLOUDY    69  64  84 NE7       30.03S
BINGHAMTON     CLOUDY    66  65  96 NE5       30.06S FOG
MONTICELLO     CLOUDY    64  63  94 CALM      30.10S
$$

NYZ026>034-041>043-087-310200-
NORTH


CITY           SKY/WX    TMP DP  RH WIND       PRES   REMARKS
WATERTOWN      PTCLDY    71  54  54 NE7       30.04R
FORT DRUM      NOT AVBL
MASSENA        CLEAR     64  56  75 CALM      30.08R
SARANAC LAKE   CLEAR     62  55  77 NE6       30.11R
PLATTSBURGH    CLOUDY    65  57  75 CALM      30.08R
$$

NYZ001>004-010>016-019>021-085-310200-
WEST


CITY           SKY/WX    TMP DP  RH WIND       PRES   REMARKS
NIAGARA FALLS  PTCLDY    74  59  59 E8        30.00R
BUFFALO        PTCLDY    75  59  57 E9        30.01R
DUNKIRK        CLOUDY    74  64  71 E10       29.99R
JAMESTOWN      CLOUDY    70  63  78 E6        30.02R
WELLSVILLE     CLOUDY    66  63  90 E7        30.07S
ROCHESTER      CLOUDY    75  55  49 E9        30.03S
PENN YAN       CLOUDY    70  64  81 CALM      30.05S
$$

             KEY
       WCI = WIND CHILL INDEX
       VSB = VISIBILITY
       HX  = HEAT INDEX
$$




USA.gov is the U.S. government's official web portal to all federal, state and local government web resources and services.